SL-8 R/B, 2802

Orbit data source: Space-Track

SL-8 R/B, 2802 is space debris in LEO originally from a launch on Mon, 15 May 1967 UTC launched from the Plesetsk Missile And Space Complex (PKMTR). Debris objects in space refer to the collection of defunct objects orbiting the Earth. Examples of debris include non-operational satellites, rocket bodies, and fragments generated from explosions, collisions, or faulty payload assembly.

Loading next visibility...
Identifier
2802, 1967-045B
Orbit
LEO
Country
Flag of CISCIS
Related business
Manufacturer
Yuzhnoe
Mission
Spacecraft
Bus & Motor
S3, Unknown motor
Mass
1,434 kg wet, 1,434 kg dry
Launch date (UTC)
1967-05-15 (58 years ago)
Launch vehicle
Unknown
Launch site
Plesetsk Missile And Space Complex (PKMTR)
Object type
Payload
Rocket body
Debris
Shape & HBR
Unknown
Radar Cross Section
Large (>1 m²)

Expand to show TLE details & history
Last TLE update: 17 hours ago

TLE from 17 hours ago
0 SL-8 R/B
1 02802U 67045B   25292.25671594  .00000822  00000-0  23519-3 0  9998
2 02802  74.0098 252.1905 0065655 293.1942  66.2309 14.45472393 68588
Epoch: 2025-10-19T06:09Z
TLE epoch observation values (Epoch: 2025-10-19T06:09:40.257Z)
Latitude
-0°
Longitude
131.79678°
Altitude
724.513 km
Speed
7.503 km/s
True Right ascension
16h 48m 45s
True Declination
0° 00' 00"
Sunlit
Object was in daylight at epoch
Visualization orbit readout
Latitude
Unknown
Longitude
Unknown
Altitude
Unknown
Speed
Unknown
Apparent Right ascension
Unknown
Apparent Declination
Unknown
Sunlit
N/A
Visualization observer readout
Local Sidereal Time
18:11:46
Azimuth
Unknown
Elevation
Unknown
Doppler factor
Unknown
Orbital elements
Apogee altitude
784.812 km
Perigee altitude
691.369 km
Semi-major axis
7,116.227 km
Eccentricity
0.00657
Inclination
74.0098°
RAAN
252.1905°
Arg. of periapsis
293.1942°
True anomaly
66.9217°
Mean anomaly
66.2309°
Eccentric anomaly
66.57607°
Mean motion
3.6155 °/min
Orbital period
99.57 mins
BSTAR
0.00023519
Loading maneuver chart data...
Computing Atmospheric mass density...
Loading historical data...
Loading historical data...
Loading historical data...
Loading historical data...
Loading historical data...
Loading historical data...
Loading historical data...
Other satellites on launch #45 in the year 1967 (1967-05-15 UTC)

Documentation

Showing up to 5 results
|